Weather History for KY19 - January, 2013

Change the Weather History Date:

Saturday, January 19, 2013

  Actual Average (KBIS) Record (KBIS)
Temperature  
Mean Temperature 18 °F 13 °F  
Max Temperature 35 °F 23 °F 60 °F (1908)
Min Temperature 0 °F 2 °F -39 °F (1996)
Degree Days  
Heating Degree Days 48 52  
Month to date heating degree days 1000  
Since 1 July heating degree days 4500  
Cooling Degree Days 0 0  
Month to date cooling degree days 0  
Year to date cooling degree days 0  
Moisture  
Dew Point 10 °F    
Average Humidity 82    
Maximum Humidity 100    
Minimum Humidity 67    
Precipitation  
Precipitation 0.00 in 0.01 in 0.23 in (1880)
Month to date precipitation 0.28  
Year to date precipitation 0.28  
Snow  
Snow 0.00 in 0.30 in 3.70 in (1979)
Month to date snowfall 5.9  
Since 1 July snowfall 26.4  
Snow Depth -    
Sea Level Pressure  
Sea Level Pressure 30.10 in    
Wind  
Wind Speed 18 mph (NW)    
Max Wind Speed 38 mph    
Max Gust Speed 52 mph    
Visibility 10 miles    
Events Rain , Snow    
T = Trace of Precipitation, MM = Missing Value Source: NWS Daily Summary

Daily Weather History Graph

Daily Weather History Graph

Search for Another Location

Airport or City:

Trip Planner

Search our weather history database for the weather conditions in past years. The results will help you decide how hot, cold, wet, or windy it might be!

Date:

Astronomy

Jan. 19, 2013 Rise Set
Actual Time 8:21 AM CST 5:28 PM CST
Civil Twilight 7:47 AM CST 6:01 PM CST
Nautical Twilight 7:10 AM CST 6:39 PM CST
Astronomical Twilight 6:34 AM CST 7:15 PM CST
Moon 11:59 AM CST (1/19) 1:51 AM CST (1/19)
Length of Visible Light 10h 14m
Length of Day
9h 07m
First Quarter, 57% of the Moon is Illuminated
Jan 19
First Quarter
Jan 26
Full
Feb 3
Last Quarter
Feb 10
New
Feb 17
First Quarter

Hourly Weather History & Observations

Time (CST) Temp. Windchill Dew Point Humidity Pressure Visibility Wind Dir Wind Speed Gust Speed Precip Events Conditions
12:15 AM 33.8 °F 27.0 °F 32.0 °F 93% 29.73 in 10.0 mi West 8.1 mph - N/A   Mostly Cloudy
12:35 AM 33.8 °F 25.8 °F 32.0 °F 93% 29.73 in 10.0 mi West 10.4 mph - N/A   Mostly Cloudy
12:55 AM 33.8 °F 25.8 °F 32.0 °F 93% 29.74 in 10.0 mi West 10.4 mph - N/A   Mostly Cloudy
1:15 AM 35.6 °F 27.1 °F 32.0 °F 87% 29.73 in 10.0 mi West 12.7 mph - N/A   Mostly Cloudy
1:35 AM 35.6 °F 25.9 °F 32.0 °F 87% 29.73 in 10.0 mi West 16.1 mph 19.6 mph N/A   Overcast
1:55 AM 35.6 °F 25.5 °F 32.0 °F 87% 29.74 in 10.0 mi WNW 17.3 mph - N/A   Overcast
2:15 AM 33.8 °F 24.3 °F 32.0 °F 93% 29.74 in 10.0 mi WNW 13.8 mph - N/A   Scattered Clouds
2:35 AM 32.0 °F 19.8 °F 32.0 °F 100% 29.76 in 10.0 mi West 20.7 mph - N/A   Clear
2:55 AM 33.8 °F 22.8 °F 32.0 °F 93% 29.78 in 10.0 mi WNW 18.4 mph - N/A   Clear
3:15 AM 35.6 °F 24.2 °F 32.0 °F 87% 29.78 in 10.0 mi WNW 21.9 mph - N/A   Mostly Cloudy
3:35 AM 35.6 °F 24.2 °F 32.0 °F 87% 29.78 in 10.0 mi WNW 21.9 mph 27.6 mph N/A   Mostly Cloudy
3:55 AM 35.6 °F 24.8 °F 32.0 °F 87% 29.79 in 10.0 mi WNW 19.6 mph 25.3 mph N/A   Mostly Cloudy
4:15 AM 35.6 °F 24.8 °F 32.0 °F 87% 29.80 in 10.0 mi WNW 19.6 mph 24.2 mph N/A   Scattered Clouds
4:35 AM 35.6 °F 24.8 °F 32.0 °F 87% 29.81 in 10.0 mi WNW 19.6 mph 26.5 mph N/A   Mostly Cloudy
4:55 AM 35.6 °F 25.2 °F 32.0 °F 87% 29.82 in 10.0 mi WNW 18.4 mph 24.2 mph N/A   Overcast
5:15 AM 33.8 °F 22.8 °F 32.0 °F 93% 29.82 in 10.0 mi NW 18.4 mph 24.2 mph N/A   Mostly Cloudy
5:35 AM 33.8 °F 23.5 °F 32.0 °F 93% 29.83 in 10.0 mi WNW 16.1 mph 21.9 mph N/A   Mostly Cloudy
5:55 AM 33.8 °F 23.9 °F 30.2 °F 87% 29.83 in 10.0 mi WNW 15.0 mph - N/A   Mostly Cloudy
7:15 AM 33.8 °F 23.2 °F 32.0 °F 93% 29.87 in 10.0 mi NW 17.3 mph 21.9 mph N/A   Overcast
8:15 AM 32.0 °F 16.5 °F 28.4 °F 87% 29.91 in 10.0 mi NNW 35.7 mph 46.0 mph N/A   Overcast
8:35 AM 28.4 °F 14.1 °F 28.4 °F 100% 29.94 in 5.0 mi NNW 24.2 mph 34.5 mph N/A Rain Light Freezing Rain
9:55 AM 17.6 °F -1.9 °F 10.4 °F 73% 30.05 in 10.0 mi NNW 29.9 mph 42.6 mph N/A   Overcast
10:15 AM 15.8 °F -5.0 °F 10.4 °F 79% 30.08 in 10.0 mi NNW 32.2 mph 40.3 mph N/A   Mostly Cloudy
10:35 AM 15.8 °F -4.1 °F 10.4 °F 79% 30.10 in 10.0 mi NNW 28.8 mph 38.0 mph N/A Snow Light Snow
10:55 AM 14.0 °F -6.8 °F 8.6 °F 79% 30.12 in 7.0 mi NNW 29.9 mph 39.1 mph N/A Snow Light Snow
11:15 AM 14.0 °F -7.1 °F 6.8 °F 73% 30.14 in 8.0 mi NW 31.1 mph 36.8 mph N/A Snow Light Snow
11:35 AM 12.2 °F -10.5 °F 5.0 °F 73% 30.14 in 10.0 mi NNW 34.5 mph 48.3 mph N/A   Mostly Cloudy
11:55 AM 14.0 °F -8.3 °F 5.0 °F 67% 30.15 in 10.0 mi NNW 35.7 mph 44.9 mph N/A   Mostly Cloudy
12:15 PM 12.2 °F -9.6 °F 5.0 °F 73% 30.16 in 10.0 mi NW 31.1 mph 41.4 mph N/A   Overcast
12:35 PM 10.4 °F -13.8 °F 1.4 °F 67% 30.17 in 10.0 mi NW 38.0 mph 51.8 mph N/A   Overcast
12:55 PM 8.6 °F -14.8 °F 1.4 °F 73% 30.18 in 10.0 mi NW 32.2 mph 48.3 mph N/A   Mostly Cloudy
1:15 PM 8.6 °F -15.1 °F -0.4 °F 67% 30.19 in 10.0 mi NW 33.4 mph 42.6 mph N/A   Scattered Clouds
1:35 PM 6.8 °F -17.3 °F -0.4 °F 72% 30.19 in 10.0 mi NW 32.2 mph 41.4 mph N/A   Mostly Cloudy
1:55 PM 6.8 °F -17.6 °F -0.4 °F 72% 30.20 in 10.0 mi NW 33.4 mph 41.4 mph N/A   Scattered Clouds
2:15 PM 6.8 °F -17.9 °F -0.4 °F 72% 30.21 in 10.0 mi NW 34.5 mph 40.3 mph N/A   Clear
2:35 PM 6.8 °F -14.7 °F -0.4 °F 72% 30.22 in 10.0 mi NW 24.2 mph 39.1 mph N/A   Clear
2:55 PM 5.0 °F -19.7 °F -2.2 °F 72% 30.24 in 10.0 mi NNW 32.2 mph 41.4 mph N/A   Partly Cloudy
3:15 PM 5.0 °F -18.3 °F -2.2 °F 72% 30.26 in 10.0 mi NNW 27.6 mph - N/A   Clear
3:35 PM 5.0 °F -17.1 °F -2.2 °F 72% 30.29 in 10.0 mi NNW 24.2 mph 31.1 mph N/A   Partly Cloudy
3:55 PM 5.0 °F -16.2 °F -2.2 °F 72% 30.28 in 10.0 mi NNW 21.9 mph 32.2 mph N/A   Mostly Cloudy
4:15 PM 5.0 °F -14.7 °F -2.2 °F 72% 30.29 in 10.0 mi NNW 18.4 mph 31.1 mph N/A   Mostly Cloudy
4:35 PM 3.2 °F -18.1 °F -2.2 °F 78% 30.30 in 10.0 mi NW 20.7 mph 24.2 mph N/A   Scattered Clouds
4:55 PM 3.2 °F -16.5 °F -4.0 °F 72% 30.30 in 10.0 mi NW 17.3 mph 24.2 mph N/A   Scattered Clouds
5:15 PM 1.4 °F -18.2 °F -4.0 °F 78% 30.30 in 10.0 mi NW 16.1 mph - N/A   Scattered Clouds
5:35 PM 1.4 °F -16.9 °F -4.0 °F 78% 30.32 in 10.0 mi NW 13.8 mph 19.6 mph N/A   Scattered Clouds
5:55 PM 1.4 °F -17.6 °F -4.0 °F 78% 30.33 in 10.0 mi NW 15.0 mph - N/A   Clear
6:15 PM -0.4 °F -19.9 °F -4.0 °F 85% 30.33 in 10.0 mi NW 15.0 mph - N/A   Clear
6:35 PM -0.4 °F -17.6 °F -4.0 °F 85% 30.33 in 10.0 mi WNW 11.5 mph - N/A   Clear
6:55 PM -0.4 °F -16.7 °F -4.0 °F 85% 30.32 in 10.0 mi NW 10.4 mph - N/A   Partly Cloudy
7:15 PM -0.4 °F -16.7 °F -4.0 °F 85% 30.33 in 10.0 mi WNW 10.4 mph - N/A   Clear
7:35 PM -0.4 °F -16.7 °F -4.0 °F 85% 30.31 in 10.0 mi NW 10.4 mph - N/A   Partly Cloudy
7:55 PM -0.4 °F -13.4 °F -4.0 °F 85% 30.31 in 10.0 mi NNW 6.9 mph - N/A   Scattered Clouds
8:15 PM -0.4 °F -16.7 °F -5.8 °F 78% 30.31 in 10.0 mi NNW 10.4 mph - N/A   Mostly Cloudy
8:35 PM -0.4 °F -17.6 °F -4.0 °F 85% 30.31 in 10.0 mi NW 11.5 mph - N/A   Mostly Cloudy
8:55 PM -0.4 °F -16.7 °F -4.0 °F 85% 30.31 in 10.0 mi NNW 10.4 mph - N/A   Partly Cloudy
9:15 PM -0.4 °F -16.7 °F -4.0 °F 85% 30.31 in 10.0 mi WNW 10.4 mph - N/A   Mostly Cloudy
9:35 PM -0.4 °F -16.7 °F -4.0 °F 85% 30.31 in 10.0 mi WNW 10.4 mph - N/A   Overcast
9:55 PM -0.4 °F -8.3 °F -4.0 °F 85% 30.31 in 10.0 mi West 3.5 mph - N/A   Overcast
10:15 PM -0.4 °F - -4.0 °F 85% 30.31 in 10.0 mi Calm Calm - N/A   Overcast
10:35 PM -0.4 °F - -4.0 °F 85% 30.31 in 10.0 mi Calm Calm - N/A   Overcast
10:55 PM -0.4 °F - -4.0 °F 85% 30.30 in 10.0 mi Calm Calm - N/A   Overcast
11:15 PM -0.4 °F -8.3 °F -4.0 °F 85% 30.30 in 10.0 mi West 3.5 mph - N/A   Overcast
11:35 PM -0.4 °F -13.4 °F -4.0 °F 85% 30.30 in 10.0 mi West 6.9 mph - N/A   Overcast
11:55 PM 1.4 °F -9.9 °F -4.0 °F 78% 30.29 in 10.0 mi West 5.8 mph - N/A   Mostly Cloudy